Location: Bothwell
(42.3833°S, 147.0000°E)
Time: 09:37:54
(UTC+11:00)

Envisat - Pass Details

Date: 08 December 2022
Orbit: 763 x 765 km, 98.2° (Epoch: 28 January)

Event Time Altitude Azimuth Distance (km) Brightness Sun altitude
Rises 04:16:41 0° 21° (NNE) 3,224 6.0 -11.2°
Reaches altitude 10° 04:18:59 10° 23° (NNE) 2,305 5.3 -10.9°
Maximum altitude 04:24:02 71° 106° (ESE) 818 3.3 -10.2°
Drops below altitude 10° 04:29:10 10° 189° (S) 2,335 6.0 -9.5°
Sets 04:31:30 0° 190° (S) 3,269 6.7 -9.2°
